sat.trackr.live / text

‹ back to catalog

ONEWEB-0574

NORAD 56063 · 2023-043T

PAYLOAD ACTIVE UNKNOWN

§ Identity

Operator
Country
UK
Launch date
2023-03-26
Launch site
SRILR
Launch vehicle
Mass (kg)
RCS (m²)

Purposes: comms

External: N2YO · Heavens-Above · Gunter

§ Orbital elements

Epoch: 2026-05-25T00:41:17.559744Z

Period
108.94 min
Inclination
87.9265°
Eccentricity
0.0002173
Mean motion
13.21825942 rev/d
Perigee alt
1,176.1 km
Apogee alt
1,179.4 km
Semi-major
7,555.9 km
B*
-6.7108e-5
RAAN
248.5799°
Arg perigee
98.3315°
Mean anomaly
261.8065°
Rev number
15,521

§ Raw data

ONEWEB-05741 56063U 23043T   26145.02867546 -.00000015  00000+0 -67108-4 0  99912 56063  87.9265 248.5799 0002173  98.3315 261.8065 13.21825942155214

JSON: /api/v1/satellites/56063 · /tle

For live sub-satellite position, see the globe view (requires WebGL).

§ Visibility from observer

Set your observer location to see the next 7 days of passes ≥ 10°. The values pass through the URL so the page stays shareable.

No JS? Fill the form by hand. The geolocation button needs JavaScript.